Winslow, AZ

4:54 PM MST on February 22, 2017 (GMT -0700)
Winslow-Lindbergh Regional

Weather History for KINW - November, 2012

Change the Weather History Date:

Sunday, November 4, 2012

  Actual Average Record
Temperature  
Mean Temperature 50 °F 49 °F  
Max Temperature 71 °F 66 °F 80 °F (1915)
Min Temperature 29 °F 32 °F 16 °F (1936)
Degree Days  
Heating Degree Days 15 16  
Month to date heating degree days 48 62  
Since 1 July heating degree days 272 368  
Cooling Degree Days 0 0  
Month to date cooling degree days 0 0  
Year to date cooling degree days 1442 1208  
Moisture  
Dew Point 15 °F    
Average Humidity 33    
Maximum Humidity 53    
Minimum Humidity 12    
Precipitation  
Precipitation 0.00 in 0.02 in 0.56 in (2016)
Month to date precipitation 0.00 0.07  
Year to date precipitation 4.87 6.01  
Sea Level Pressure  
Sea Level Pressure 30.25 in    
Wind  
Wind Speed 3 mph (SSW)    
Max Wind Speed 9 mph    
Max Gust Speed 14 mph    
Visibility 10 miles    
Events      
T = Trace of Precipitation, MM = Missing Value Source: NWS Daily Summary

Daily Weather History Graph

Daily Weather History Graph

Search for Another Location

Airport or City:

Trip Planner

Search our weather history database for the weather conditions in past years. The results will help you decide how hot, cold, wet, or windy it might be!

Date:

Astronomy

Nov. 04, 2012 Rise Set
Actual Time 6:47 AM MST 5:25 PM MST
Civil Twilight 6:20 AM MST 5:51 PM MST
Nautical Twilight 5:50 AM MST 6:21 PM MST
Astronomical Twilight 5:21 AM MST 6:51 PM MST
Moon 10:08 PM MST (11/4) 11:30 AM MST (11/4)
Length of Visible Light 11h 30m
Length of Day
10h 37m
Waning Gibbous, 71% of the Moon is Illuminated
Nov 4
Waning Gibbous
Nov 6
Last Quarter
Nov 13
New
Nov 20
First Quarter
Nov 28
Full

Hourly Weather History & Observations

Time (MST) Temp. Windchill Dew Point Humidity Pressure Visibility Wind Dir Wind Speed Gust Speed Precip Events Conditions
12:56 AM 41.0 °F - 19.4 °F 42% 30.27 in 10.0 mi Calm Calm - N/A   Clear
1:56 AM 37.9 °F 34.4 °F 18.0 °F 45% 30.18 in 10.0 mi SSE 4.6 mph - N/A   Clear
2:56 AM 36.0 °F - 19.0 °F 50% 30.18 in 10.0 mi Calm Calm - N/A   Clear
3:56 AM 34.0 °F - 16.0 °F 48% 30.20 in 10.0 mi Calm Calm - N/A   Clear
4:56 AM 30.9 °F - 14.0 °F 50% 30.23 in 10.0 mi Calm Calm - N/A   Clear
5:56 AM 30.0 °F - 15.1 °F 54% 30.26 in 10.0 mi Calm Calm - N/A   Clear
6:56 AM 30.0 °F 26.5 °F 16.0 °F 56% 30.32 in 10.0 mi South 3.5 mph - N/A   Clear
7:56 AM 37.0 °F 34.5 °F 16.0 °F 42% 30.33 in 10.0 mi ESE 3.5 mph - N/A   Clear
8:56 AM 44.1 °F 40.8 °F 17.1 °F 34% 30.33 in 10.0 mi ESE 5.8 mph - N/A   Clear
9:56 AM 51.1 °F - 18.0 °F 27% 30.30 in 10.0 mi ESE 4.6 mph - N/A   Clear
10:56 AM 57.0 °F - 19.0 °F 23% 30.29 in 10.0 mi Calm Calm - N/A   Clear
11:56 AM 61.0 °F - 18.0 °F 19% 30.26 in 10.0 mi ESE 3.5 mph - N/A   Clear
12:56 PM 66.0 °F - 17.1 °F 15% 30.21 in 10.0 mi Calm Calm - N/A   Clear
1:56 PM 69.1 °F - 16.0 °F 13% 30.19 in 10.0 mi Variable 3.5 mph - N/A   Clear
2:56 PM 70.0 °F - 16.0 °F 13% 30.19 in 10.0 mi NNW 4.6 mph - N/A   Clear
3:56 PM 70.0 °F - 15.1 °F 12% 30.20 in 10.0 mi NNW 6.9 mph - N/A   Clear
4:56 PM 68.0 °F - 16.0 °F 14% 30.21 in 10.0 mi NW 5.8 mph - N/A   Clear
5:56 PM 55.9 °F - 12.9 °F 18% 30.26 in 10.0 mi WNW 4.6 mph - N/A   Clear
6:56 PM 48.9 °F - 10.9 °F 22% 30.29 in 10.0 mi WSW 4.6 mph - N/A   Clear
7:56 PM 46.9 °F - 10.9 °F 23% 30.28 in 10.0 mi SW 6.9 mph - N/A   Clear
8:56 PM 45.0 °F 41.8 °F 12.0 °F 26% 30.28 in 10.0 mi West 5.8 mph - N/A   Clear
9:56 PM 46.9 °F - 12.9 °F 25% 30.27 in 10.0 mi Calm Calm - N/A   Clear
10:56 PM 41.0 °F 38.0 °F 10.0 °F 28% 30.27 in 10.0 mi SSW 4.6 mph - N/A   Clear
11:56 PM 39.0 °F - 10.0 °F 30% 30.27 in 10.0 mi Calm Calm - N/A   Clear